Location: Casco Volunteer Fire Department
(44.5576°N, 87.6146°W)
Time: 05:19:09
(UTC+00:00)

RESURS DK-1 - Pass Details

Date: 22 January 2026
Orbit: 525 x 531 km, 69.9° (Epoch: 11 February)

Event Time Altitude Azimuth Distance (km) Brightness Sun altitude
Rises 23:27:31 0° 231° (SW) 2,665 7.5 -7.6°
Reaches altitude 10° 23:29:53 10° 243° (WSW) 1,780 6.6 -8.0°
Maximum altitude 23:33:24 30° 305° (NW) 986 4.0 -8.6°
Drops below altitude 10° 23:36:56 10° 8° (N) 1,791 4.7 -9.2°
Enters shadow 23:39:17 - 19° (NNE) 2,671 5.5 -9.6°
